#timestamp,LO_Frequency,Hit,StdDev 
1569124815.9,286047007.0,N
1569124835.7,286047004.5,N
1569124855.5,286047007.9,N
1569124875.4,286047010.3,N
1569124895.2,286047006.5,N
1569124915.0,286047006.3,N
1569124916.0,286047006.3,N
1569124935.8,286047008.2,N
1569124955.6,286047010.6,N
1569124975.5,286047010.6,N
1569124995.3,286047010.4,N
1569125015.1,286047009.7,N
1569125035.9,286047007.8,N
1569125055.7,286047010.9,N
1569125075.6,286047015.6,Y
1569125095.4,286047008.8,P
1569125115.2,286047007.0,P
1569125135.1,286047006.4,P
1569125136.0,286047006.4,Y
1569125155.8,286046998.9,P
1569125175.7,286046999.2,N
1569125195.5,286046998.1,N
1569125215.3,286047001.4,N
1569125235.2,286046999.3,N
1569125255.9,286047000.0,N
1569125275.7,286047000.9,N
1569125295.6,286047001.9,N
1569125315.4,286047004.2,N
1569125335.2,286047005.1,N
1569125355.1,286047007.5,N
1569125356.0,286047007.5,N
1569125375.8,286047006.9,N
1569125395.7,286047010.1,N
1569125415.5,286047010.2,N
1569125435.3,286047010.5,N
1569125455.2,286047009.3,N
1569125475.0,286047015.6,Y
1569125475.9,286047015.6,P
1569125495.8,286047010.1,N
1569125515.6,286047010.3,N
1569125535.4,286047008.6,N
1569125555.3,286047009.2,N
1569125575.1,286047010.5,Y
1569125595.8,286046998.4,P
1569125615.7,286046997.3,N
1569125635.5,286046996.4,N
1569125655.4,286046993.6,N
1569125675.2,286046994.1,N
1569125695.0,286046993.3,N
1569125695.9,286046993.3,N
1569125715.8,286046994.9,N
1569125735.6,286046997.4,N
1569125755.4,286046998.7,N
1569125775.3,286046997.0,N
1569125795.1,286046995.3,N
1569125815.9,286046997.6,N
1569125835.7,286046994.9,N
1569125855.5,286046995.8,N
1569125875.4,286046996.1,N
1569125895.2,286046997.0,N
1569125915.0,286046993.5,N
1569125915.9,286046993.5,N
1569125935.8,286046993.9,N
1569125955.6,286046993.8,N
1569125975.5,286046996.9,N
1569125995.3,286046998.5,N
1569126015.1,286046999.9,N
1569126035.9,286047003.0,N
1569126055.7,286046999.8,N
1569126075.5,286047002.7,N
1569126095.4,286047002.0,N
1569126115.2,286047009.2,N
1569126135.0,286047004.5,N
1569126136.0,286047004.5,N
1569126155.8,286047004.8,N
1569126175.6,286047003.4,N
1569126195.5,286047002.3,N
1569126215.3,286047004.2,N
1569126235.1,286047003.9,N
1569126255.9,286047004.6,N
1569126275.7,286047003.7,N
1569126295.6,286047001.2,N
1569126315.4,286046999.3,N
1569126335.2,286046995.5,N
1569126355.1,286046997.8,N
1569126356.0,286046997.8,N
1569126375.8,286046997.0,N
1569126395.6,286046994.9,N
1569126415.5,286046996.8,N
1569126435.3,286046998.7,N
1569126455.2,286046999.3,N
1569126475.9,286046997.9,N
1569126495.7,286046993.3,N
1569126515.6,286046991.3,N
1569126535.4,286046992.4,N
1569126555.2,286046992.0,N
1569126575.1,286046988.8,N
1569126576.0,286046988.8,N
1569126595.8,286046985.2,N
1569126615.7,286046982.7,Y
1569126635.5,286046986.2,P
1569126655.3,286046982.1,N
1569126675.2,286046984.0,N
1569126695.0,286046984.7,N
1569126695.9,286046984.7,N
1569126715.7,286046988.2,N
1569126735.6,286046988.2,N
1569126755.4,286046988.6,N
1569126775.3,286046989.1,N
1569126795.1,286046987.0,Y
1569126796.0,286046987.0,P
1569126815.8,286047002.0,P
1569126835.7,286047002.7,N
1569126855.5,286047001.1,N
1569126875.3,286046999.1,N
1569126895.2,286047001.0,N
1569126915.0,286046999.5,N
1569126915.9,286046999.5,N
1569126935.8,286046999.3,N
1569126955.6,286046996.5,N
1569126975.4,286046997.6,N
1569126995.3,286046997.6,N
1569127015.1,286046999.9,N
1569127035.8,286046997.4,N
1569127055.7,286046995.6,N
1569127075.5,286046996.1,N
1569127095.4,286046993.5,N
1569127115.2,286046995.0,N
1569127135.0,286046996.3,N
1569127135.9,286046996.3,N
1569127155.8,286046991.8,N
1569127175.6,286046992.7,N
1569127195.4,286046992.2,N
1569127215.3,286046994.6,N
1569127235.1,286046996.6,N
1569127255.9,286046997.6,N
1569127275.7,286046995.1,N
1569127295.5,286046996.0,N
1569127315.4,286046993.4,N
1569127335.2,286046993.6,N
1569127355.0,286046994.2,N
1569127356.0,286046994.2,N
1569127375.8,286046995.1,N
1569127395.6,286046997.8,N
1569127415.5,286047000.5,N
1569127435.3,286046998.9,N
1569127455.1,286047000.9,N
1569127475.9,286047000.0,N
1569127495.7,286046997.8,N
1569127515.5,286046995.5,N
1569127535.4,286046999.6,N
1569127555.2,286046998.6,N
1569127575.1,286046999.7,N
1569127576.0,286046999.7,N
1569127595.8,286046996.6,N
1569127615.6,286046992.4,N
1569127635.5,286046989.0,Y
1569127655.3,286046994.0,P
1569127675.2,286046991.4,P
1569127695.9,286046988.6,P
1569127715.7,286046985.0,Y
1569127735.6,286046989.3,P
1569127755.4,286046985.6,P
1569127775.2,286046982.5,P
1569127795.1,286046983.5,Y
1569127796.0,286046983.5,P
1569127815.8,286046991.9,P
1569127835.7,286046988.9,P
1569127855.5,286046990.1,Y
1569127875.3,286047004.9,P
1569127895.2,286047005.1,N
1569127915.0,286047006.8,N
1569127915.9,286047006.8,N
1569127935.7,286047006.1,N
1569127955.6,286047008.1,N
1569127975.4,286047014.0,N
1569127995.3,286047014.7,N
1569128015.1,286047016.6,N
1569128016.0,286047016.6,N
1569128035.8,286047017.4,N
1569128055.7,286047016.4,N
1569128075.5,286047019.1,N
1569128095.3,286047017.9,N
1569128115.2,286047018.7,N
1569128135.0,286047016.1,N
1569128135.9,286047016.1,N
1569128155.8,286047018.6,N
1569128175.6,286047022.0,N
1569128195.4,286047024.4,Y
1569128215.3,286047012.5,P
1569128235.1,286047016.8,P
1569128255.9,286047020.4,P
1569128275.7,286047019.7,Y
1569128295.5,286047003.0,P
1569128315.4,286047005.4,N
1569128335.2,286047003.8,N
1569128355.0,286047003.7,N
1569128355.9,286047003.7,N
1569128375.8,286047004.4,N
1569128395.6,286047005.9,N
